DELTA 1 DEB, 29185

Orbit data source: Space-Track

DELTA 1 DEB, 29185 is space debris in LEO originally from a launch on Thu, 11 Jan 1968 UTC launched from the Air Force Western Test Range (AFWTR). Debris objects in space refer to the collection of defunct objects orbiting the Earth. Examples of debris include non-operational satellites, rocket bodies, and fragments generated from explosions, collisions, or faulty payload assembly.

Loading next visibility...
Identifier
29185, 1968-002J
Orbit
LEO
Country
Flag of USUS
Related business
Manufacturer
Unknown
Mission
Spacecraft
Bus & Motor
Unknown
Mass
Unknown
Launch date (UTC)
1968-01-11 (58 years ago)
Launch vehicle
Unknown
Launch site
Air Force Western Test Range (AFWTR)
Object type
Payload
Rocket body
Debris
Shape & HBR
Unknown shape, 0.1 m
Radar Cross Section
Small (<0.1 m²)

Expand to show TLE details & history
Last TLE update: 21 hours ago

TLE from 21 hours ago
0 DELTA 1 DEB
1 29185U 68002J   25346.54876781  .00001974  00000-0  42696-2 0  9997
2 29185 105.7869  91.1799 0261073 262.2384  94.8994 13.20163536442480
Epoch: 2025-12-12T13:10Z
TLE epoch observation values (Epoch: 2025-12-12T13:10:13.538Z)
Latitude
-0.00008°
Longitude
172.13471°
Altitude
1,208.537 km
Speed
7.239 km/s
True Right ascension
06h 04m 43s
True Declination
0° 00' 00"
Sunlit
Object was in full shadow at epoch
Visualization orbit readout
Latitude
Unknown
Longitude
Unknown
Altitude
Unknown
Speed
Unknown
Apparent Right ascension
Unknown
Apparent Declination
Unknown
Sunlit
N/A
Visualization observer readout
Local Sidereal Time
08:49:59
Azimuth
Unknown
Elevation
Unknown
Doppler factor
Unknown
Orbital elements
Apogee altitude
1,379.203 km
Perigee altitude
984.462 km
Semi-major axis
7,559.97 km
Eccentricity
0.02611
Inclination
105.7869°
RAAN
91.1799°
Arg. of periapsis
262.2384°
True anomaly
97.87053°
Mean anomaly
94.8994°
Eccentric anomaly
96.38596°
Mean motion
3.30189 °/min
Orbital period
109.03 mins
BSTAR
0.0042696
Loading maneuver chart data...
Computing Atmospheric mass density...
Loading historical data...
Loading historical data...
Loading historical data...
Loading historical data...
Loading historical data...
Loading historical data...
Loading historical data...

Documentation

Showing up to 5 results
|